0 HST 1 20580U 90037B 26121.12897901 .00008025 00000-0 25885-3 0 9999 2 20580 28.4760 42.0596 0001816 349.3282 10.7275 15.30223611781357 0 ISS (ZARYA) 1 25544U 98067A 26121.23215145 .00007946 00000-0 15194-3 0 9994 2 25544 51.6312 172.5179 0007184 10.5209 349.5928 15.49045666564471 0 CXO 1 25867U 99040B 26121.77434247 .00000574 00000-0 00000+0 0 9995 2 25867 55.4326 117.9802 7910128 310.5568 359.9255 0.37807064 17145